• In Belarus
  • List of Countries
  • For 7 days
  • Water Temperature
  • Satellite Maps
  • Weather Map
  • Weather Widgets
  • user-avatar
    Login

    Hourly Weather Lobkovo

    Today, 19 April, Thursday

    Time Temperature Precipitation Wind Pressure Humidity
    00:00 +7°C° 0.1 mm 3 mps 743 mmHg 95%
    01:00 +7°C° 0.1 mm 3 mps 743 mmHg 95%
    02:00 +5°C° 0 mm 3 mps 744 mmHg 93%
    03:00 +5°C° 0.1 mm 3 mps 743 mmHg 93%
    04:00 +5°C° 0.1 mm 3 mps 743 mmHg 92%
    05:00 +5°C° 0.1 mm 4 mps 743 mmHg 92%
    06:00 +6°C° 0 mm 4 mps 743 mmHg 87%
    07:00 +7°C° 0 mm 4 mps 743 mmHg 81%
    08:00 +8°C° 0 mm 5 mps 743 mmHg 76%
    09:00 +9°C° 0 mm 5 mps 743 mmHg 73%
    10:00 +10°C° 0 mm 5 mps 743 mmHg 70%
    11:00 +12°C° 0 mm 5 mps 743 mmHg 67%
    12:00 +11°C° 0 mm 6 mps 743 mmHg 67%
    13:00 +11°C° 0 mm 6 mps 743 mmHg 67%
    14:00 +11°C° 0 mm 6 mps 743 mmHg 68%
    15:00 +11°C° 0 mm 6 mps 744 mmHg 65%
    16:00 +11°C° 0 mm 6 mps 744 mmHg 62%
    17:00 +10°C° 0 mm 5 mps 744 mmHg 58%
    18:00 +9°C° 0 mm 5 mps 745 mmHg 64%
    19:00 +8°C° 0 mm 5 mps 745 mmHg 69%
    20:00 +7°C° 0 mm 4 mps 746 mmHg 74%
    21:00 +6°C° 0 mm 4 mps 746 mmHg 77%
    22:00 +6°C° 0 mm 4 mps 746 mmHg 80%
    23:00 +5°C° 0 mm 4 mps 747 mmHg 82%

    Tomorrow, 20 April, Friday

    Time Temperature Precipitation Wind Pressure Humidity
    00:00 +5°C° 0 mm 3 mps 747 mmHg 85%
    01:00 +4°C° 0 mm 3 mps 747 mmHg 87%
    02:00 +4°C° 0 mm 3 mps 748 mmHg 89%
    03:00 +4°C° 0 mm 3 mps 748 mmHg 90%
    04:00 +3°C° 0 mm 3 mps 748 mmHg 91%
    05:00 +3°C° 0 mm 3 mps 748 mmHg 92%
    06:00 +4°C° 0 mm 4 mps 749 mmHg 85%
    07:00 +4°C° 0 mm 4 mps 749 mmHg 78%
    08:00 +5°C° 0 mm 4 mps 750 mmHg 71%
    09:00 +6°C° 0 mm 4 mps 750 mmHg 68%
    10:00 +6°C° 0 mm 4 mps 750 mmHg 64%
    11:00 +7°C° 0 mm 4 mps 750 mmHg 60%
    12:00 +7°C° 0 mm 4 mps 750 mmHg 60%
    13:00 +8°C° 0 mm 3 mps 750 mmHg 60%
    14:00 +8°C° 0 mm 3 mps 750 mmHg 59%
    15:00 +8°C° 0 mm 3 mps 749 mmHg 60%
    16:00 +8°C° 0 mm 2 mps 749 mmHg 61%
    17:00 +8°C° 0 mm 2 mps 749 mmHg 62%
    18:00 +8°C° 0 mm 2 mps 748 mmHg 67%
    19:00 +7°C° 0 mm 2 mps 748 mmHg 71%
    20:00 +6°C° 0 mm 2 mps 748 mmHg 76%
    21:00 +6°C° 0.3 mm 2 mps 747 mmHg 78%
    22:00 +5°C° 0.3 mm 3 mps 746 mmHg 81%
    23:00 +5°C° 0.3 mm 4 mps 745 mmHg 83%

    Day after tomorrow, 21 April, Saturday

    Time Temperature Precipitation Wind Pressure Humidity
    00:00 +5°C° 0.5 mm 4 mps 743 mmHg 84%
    01:00 +6°C° 0.5 mm 5 mps 742 mmHg 84%
    02:00 +5°C° 0.5 mm 6 mps 741 mmHg 85%
    03:00 +5°C° 0.4 mm 6 mps 740 mmHg 86%
    04:00 +5°C° 0.4 mm 6 mps 738 mmHg 87%
    05:00 +7°C° 0.4 mm 6 mps 737 mmHg 88%
    06:00 +7°C° 0.3 mm 5 mps 736 mmHg 88%
    07:00 +8°C° 0.3 mm 5 mps 735 mmHg 88%
    08:00 +8°C° 0.3 mm 5 mps 734 mmHg 88%
    09:00 +9°C° 0.2 mm 5 mps 733 mmHg 88%
    10:00 +9°C° 0.2 mm 5 mps 732 mmHg 87%
    11:00 +9°C° 0.2 mm 6 mps 731 mmHg 86%
    12:00 +10°C° 0.4 mm 6 mps 730 mmHg 85%
    13:00 +10°C° 0.4 mm 6 mps 729 mmHg 84%
    14:00 +10°C° 0.4 mm 6 mps 728 mmHg 83%
    15:00 +9°C° 0.3 mm 7 mps 728 mmHg 80%
    16:00 +7°C° 0.3 mm 8 mps 728 mmHg 77%
    17:00 +6°C° 0.3 mm 8 mps 728 mmHg 74%
    18:00 +5°C° 0.4 mm 9 mps 728 mmHg 76%
    19:00 +3°C° 0.4 mm 9 mps 729 mmHg 79%
    20:00 +2°C° 0.4 mm 9 mps 729 mmHg 81%
    21:00 +1°C° 0.2 mm 9 mps 730 mmHg 81%
    22:00 +1°C° 0.2 mm 8 mps 731 mmHg 81%
    23:00 0°C° 0.2 mm 8 mps 731 mmHg 81%

    22 April, Sunday

    Time Temperature Precipitation Wind Pressure Humidity
    00:00 0°C° 0.1 mm 8 mps 732 mmHg 81%
    01:00 -1°C° 0.1 mm 7 mps 733 mmHg 81%
    02:00 -1°C° 0.1 mm 7 mps 734 mmHg 81%
    03:00 -1°C° 0 mm 7 mps 734 mmHg 81%
    04:00 -2°C° 0 mm 6 mps 735 mmHg 80%
    05:00 -2°C° 0 mm 6 mps 736 mmHg 80%
    06:00 -2°C° 0 mm 6 mps 737 mmHg 77%
    07:00 -2°C° 0 mm 6 mps 737 mmHg 75%
    08:00 -2°C° 0 mm 6 mps 738 mmHg 73%
    09:00 -1°C° 0 mm 6 mps 738 mmHg 70%
    10:00 0°C° 0 mm 5 mps 739 mmHg 68%
    11:00 +1°C° 0 mm 5 mps 739 mmHg 66%
    12:00 +1°C° 0 mm 5 mps 740 mmHg 65%
    13:00 +1°C° 0 mm 5 mps 740 mmHg 63%
    14:00 +1°C° 0 mm 5 mps 740 mmHg 62%
    15:00 +1°C° 0 mm 4 mps 741 mmHg 61%
    16:00 +1°C° 0 mm 4 mps 741 mmHg 60%
    17:00 +1°C° 0 mm 4 mps 741 mmHg 60%
    18:00 +1°C° 0 mm 3 mps 742 mmHg 64%
    19:00 0°C° 0 mm 3 mps 742 mmHg 68%
    20:00 -1°C° 0 mm 2 mps 743 mmHg 73%
    21:00 -1°C° 0 mm 2 mps 743 mmHg 75%
    22:00 -2°C° 0 mm 2 mps 743 mmHg 77%
    23:00 -2°C° 0 mm 2 mps 743 mmHg 79%

    23 April, Monday

    Time Temperature Precipitation Wind Pressure Humidity
    00:00 -3°C° 0 mm 2 mps 744 mmHg 80%
    01:00 -3°C° 0 mm 2 mps 744 mmHg 81%
    02:00 -3°C° 0 mm 2 mps 744 mmHg 82%
    03:00 -3°C° 0 mm 2 mps 745 mmHg 80%
    04:00 -3°C° 0 mm 2 mps 745 mmHg 78%
    05:00 -3°C° 0 mm 2 mps 745 mmHg 77%
    06:00 -2°C° 0 mm 3 mps 745 mmHg 67%
    07:00 0°C° 0 mm 3 mps 746 mmHg 58%
    08:00 +1°C° 0 mm 3 mps 746 mmHg 48%
    09:00 +2°C° 0 mm 3 mps 746 mmHg 45%
    10:00 +3°C° 0 mm 3 mps 746 mmHg 42%
    11:00 +3°C° 0 mm 3 mps 746 mmHg 40%
    12:00 +4°C° 0 mm 3 mps 746 mmHg 39%
    13:00 +4°C° 0 mm 3 mps 746 mmHg 39%
    14:00 +5°C° 0 mm 3 mps 746 mmHg 38%
    15:00 +4°C° 0 mm 3 mps 746 mmHg 40%
    16:00 +5°C° 0 mm 2 mps 746 mmHg 41%
    17:00 +5°C° 0 mm 2 mps 746 mmHg 43%
    18:00 +3°C° 0 mm 2 mps 746 mmHg 49%
    19:00 +3°C° 0 mm 1 mps 746 mmHg 55%
    20:00 +1°C° 0 mm 1 mps 746 mmHg 60%
    21:00 +1°C° 0 mm 1 mps 746 mmHg 62%
    22:00 0°C° 0 mm 1 mps 746 mmHg 64%
    23:00 0°C° 0 mm 1 mps 746 mmHg 65%

    24 April, Tuesday

    Time Temperature Precipitation Wind Pressure Humidity
    00:00 0°C° 0 mm 1 mps 746 mmHg 66%
    01:00 -1°C° 0 mm 1 mps 746 mmHg 66%
    02:00 -1°C° 0 mm 1 mps 746 mmHg 66%
    03:00 0°C° 0 mm 1 mps 746 mmHg 65%
    04:00 0°C° 0 mm 1 mps 746 mmHg 64%
    05:00 0°C° 0 mm 1 mps 746 mmHg 62%
    06:00 +1°C° 0 mm 2 mps 746 mmHg 57%
    07:00 +3°C° 0 mm 2 mps 746 mmHg 51%
    08:00 +4°C° 0 mm 3 mps 746 mmHg 45%
    09:00 +5°C° 0 mm 3 mps 746 mmHg 43%
    10:00 +7°C° 0 mm 3 mps 745 mmHg 40%
    11:00 +8°C° 0 mm 3 mps 745 mmHg 38%
    12:00 +9°C° 0 mm 3 mps 745 mmHg 38%
    13:00 +9°C° 0 mm 3 mps 744 mmHg 38%
    14:00 +10°C° 0 mm 3 mps 744 mmHg 39%
    15:00 +9°C° 0 mm 3 mps 744 mmHg 42%
    16:00 +9°C° 0 mm 3 mps 743 mmHg 45%
    17:00 +9°C° 0 mm 3 mps 743 mmHg 47%
    18:00 +7°C° 0 mm 3 mps 743 mmHg 52%
    19:00 +5°C° 0 mm 4 mps 743 mmHg 57%
    20:00 +3°C° 0 mm 4 mps 743 mmHg 61%
    21:00 +3°C° 0 mm 4 mps 742 mmHg 61%
    22:00 +1°C° 0 mm 4 mps 742 mmHg 61%
    23:00 +1°C° 0 mm 4 mps 742 mmHg 61%
    Show more